Home   Weather   Hartberg   Past weeks

Flag for Austria Past Weather in Hartberg, Styria, Austria — Yesterday and Last 2 Weeks

45 °F

Passing clouds.

Feels Like: 43 °F
Forecast: 35 / 59 °F
Wind: 3 mph from Northeast

Location: Graz-Thalerhof-Flughafen

Current Time: Oct 24, 2016 at 12:12:09 AM

Latest Report: Oct 23, 2016 at 11:20 PM

Visibility: N/A

Pressure: 30.07 "Hg

Humidity: 93%

Dew Point: 43 °F

Location of HartbergLocation

Past Weather in Hartberg — Graph


Hartberg Temperature Yesterday

Maximum temperature yesterday: 57 °F (at 3:50 PM)
Minimum temperature yesterday: 34 °F (at 1:50 AM)
Average temperature yesterday: 43 °F

High & Low Weather Summary for the Past Weeks

High64 °F (Oct 16, 2:20 PM)100% (Oct 9, 3:20 AM)30.30 "Hg (Oct 9, 3:20 AM)
Low28 °F (Oct 13, 5:50 AM)44% (Oct 12, 1:50 PM)29.89 "Hg (Oct 12, 1:20 AM)
Average46 °F88%30.08 "Hg
* Reported Oct 8 10:20 PM — Oct 23 10:50 PM, Hartberg, Weather by CustomWeather, © 2016

Note: Actual official high and low records may vary slightly from our data, if they occured in-between our weather recording intervals... More about our weather records


Hartberg Weather History for the Previous 24 Hours

Scroll right to see more
Time TempWeatherWind HumidityBarometerVisibility
10:50 PM
Sun, Oct 23
46 °FClear.2 mph93%30.07 "Hg10 mi
10:20 PM45 °FClear.2 mph93%30.04 "Hg10 mi
9:50 PM45 °FClear.2 mph93%30.04 "Hg10 mi
9:20 PM46 °FClear.3 mph93%30.04 "Hg10 mi
8:50 PM46 °FClear.5 mph93%30.04 "Hg10 mi
8:20 PM46 °FPassing clouds.5 mph93%30.04 "HgN/A
7:50 PM46 °FPassing clouds.3 mph87%30.04 "HgN/A
7:20 PM48 °FPassing clouds.2 mph87%30.04 "HgN/A
6:50 PM50 °FPassing clouds.3 mph82%30.04 "HgN/A
6:20 PM52 °FPassing clouds.3 mph77%30.01 "HgN/A
5:50 PM54 °FScattered clouds.1 mph72%30.01 "HgN/A
5:20 PM55 °FPassing clouds.3 mph67%30.01 "HgN/A
4:50 PM57 °FPassing clouds.3 mph63%30.01 "HgN/A
4:20 PM57 °FPassing clouds.5 mph67%30.01 "HgN/A
3:50 PM57 °FScattered clouds.5 mph67%30.01 "HgN/A
3:20 PM55 °FScattered clouds.5 mph67%30.01 "HgN/A
2:50 PM54 °FScattered clouds.5 mph72%30.01 "HgN/A
2:20 PM54 °FScattered clouds.5 mph72%30.01 "HgN/A
1:50 PM52 °FScattered clouds.3 mph77%30.04 "HgN/A
1:20 PM50 °FScattered clouds.3 mph76%30.04 "HgN/A
12:50 PM46 °FScattered clouds.5 mph93%30.04 "HgN/A
12:20 PM43 °FScattered clouds.5 mph100%30.04 "HgN/A
11:50 AM41 °FSnow. Fog.5 mph100%30.04 "Hg4 mi
11:20 AM41 °FSnow. Cloudy.3 mph100%30.04 "Hg1 mi
10:50 AM39 °FFog.3 mph100%30.04 "Hg1 mi
10:20 AM39 °FFog.1 mph100%30.04 "Hg1 mi
9:50 AM37 °FFog.1 mph100%30.04 "Hg1 mi
9:20 AM37 °FFog.1 mph100%30.04 "Hg0 mi
8:50 AM36 °FFog.2 mph100%30.04 "Hg1 mi
8:20 AM36 °FFog.1 mph100%30.04 "Hg0 mi
7:50 AM36 °FFog.2 mph100%30.04 "Hg0 mi
7:20 AM37 °FFog.2 mph100%30.04 "Hg0 mi
6:50 AM37 °FFog.1 mph100%30.04 "Hg0 mi
6:20 AM36 °FFog.2 mph100%30.04 "Hg0 mi
5:50 AM36 °FFog.2 mph100%30.04 "Hg0 mi
5:20 AM36 °FFog.2 mph100%30.04 "Hg0 mi
4:50 AM36 °FFog.2 mph100%30.04 "Hg0 mi
4:20 AM36 °FSnow flurries. Fog.2 mph100%30.04 "Hg0 mi
3:50 AM36 °FFog.3 mph100%30.04 "Hg0 mi
3:20 AM36 °FFog.2 mph100%30.04 "Hg0 mi
2:50 AM36 °FFog.1 mph100%30.04 "Hg1 mi
2:20 AM36 °FPassing clouds.1 mph100%30.04 "Hg1 mi
1:50 AM34 °FPassing clouds.2 mph100%30.04 "Hg1 mi
1:20 AM36 °FLight fog.1 mph100%30.04 "Hg1 mi
12:50 AM36 °FLight fog.1 mph100%30.04 "Hg0 mi
Weather by CustomWeather, © 2016

See weather overviewHow to use our weather pages